Tracking 30918 objects as of 2-Jul-2025
HD Live streaming from Space Station
objects crossing your sky now

UPPER FREE FLYER

Track UPPER FREE FLYER now!
10-day predictions


NORAD ID: 43763
Int'l Code: 2018-099F
Perigee: 538.4 km
Apogee: 559.5 km
Inclination: 97.5 °
Period: 95.5 minutes
Semi major axis: 6919 km
RCS: Unknown
Launch date: December 3, 2018
Source: United States (US)
Launch site: AIR FORCE WESTERN TEST RANGE (AFWTR)
Your satellite tracking list
Your tracking list is empty




NASA's NSSDC Master Catalog

Two Line Element Set (TLE):
1 43763U 18099F   25183.17638562  .00002685  00000-0  17738-3 0  9997
2 43763  97.4872 236.4055 0015217  70.9335 289.3540 15.08160581359733
Source of the keplerian elements: AFSPC